Rice Lake, WI

9:09 AM CDT on May 24, 2017 (GMT -0500)
Rice Lake Regional-Carl's

Weather History for KRPD - January, 2014

Change the Weather History Date:

Friday, January 31, 2014

  Actual Average Record
Temperature  
Mean Temperature -9 °F -  
Max Temperature 3 °F 24 °F 39 °F (2016)
Min Temperature -21 °F 8 °F -21 °F (2014)
Degree Days  
Heating Degree Days 74    
Moisture  
Dew Point -15 °F    
Average Humidity 70    
Maximum Humidity 83    
Minimum Humidity 56    
Precipitation  
Precipitation 0.00 in - - ()
Sea Level Pressure  
Sea Level Pressure 30.05 in    
Wind  
Wind Speed 5 mph (SW)    
Max Wind Speed 10 mph    
Max Gust Speed -    
Visibility 9 miles    
Events Snow    
Averages and records for this station are not official NWS values.
T = Trace of Precipitation, MM = Missing Value Source: NWS Daily Summary

Daily Weather History Graph

Daily Weather History Graph

Search for Another Location

Airport or City:

Trip Planner

Search our weather history database for the weather conditions in past years. The results will help you decide how hot, cold, wet, or windy it might be!

Date:

Astronomy

Jan. 31, 2014 Rise Set
Actual Time 7:29 AM CST 5:12 PM CST
Civil Twilight 6:57 AM CST 5:44 PM CST
Nautical Twilight 6:21 AM CST 6:19 PM CST
Astronomical Twilight 5:47 AM CST 6:54 PM CST
Moon 7:34 AM CST (1/31) 6:43 PM CST (1/31)
Length of Visible Light 10h 46m
Length of Day
9h 43m
New Moon, 1% of the Moon is Illuminated
Jan 31
New Moon
Feb 6
First Quarter
Feb 14
Full
Feb 22
Last Quarter
Mar 1
New

Hourly Weather History & Observations

Time (CST) Temp. Windchill Dew Point Humidity Pressure Visibility Wind Dir Wind Speed Gust Speed Precip Events Conditions
12:15 AM -3.5 °F -17.1 °F -11.2 °F 69% 29.98 in 10.0 mi WSW 6.9 mph - N/A   Clear
12:35 AM -4.5 °F -19.7 °F -12.3 °F 69% 29.99 in 10.0 mi West 8.1 mph - N/A   Clear
12:55 AM -4.4 °F -18.2 °F -13.0 °F 66% 29.98 in 10.0 mi WNW 6.9 mph - N/A   Clear
1:15 AM -5.3 °F -19.3 °F -14.4 °F 65% 29.99 in 10.0 mi WNW 6.9 mph - N/A   Clear
1:35 AM -5.8 °F -21.2 °F -14.8 °F 65% 30.00 in 10.0 mi WNW 8.1 mph - N/A   Clear
1:55 AM -6.7 °F -22.3 °F -15.2 °F 67% 30.01 in 10.0 mi WNW 8.1 mph - N/A   Clear
2:15 AM -6.9 °F -23.7 °F -15.5 °F 66% 30.00 in 10.0 mi WNW 9.2 mph - N/A   Clear
2:35 AM -8.1 °F -22.7 °F -16.6 °F 67% 30.00 in 10.0 mi WNW 6.9 mph - N/A   Clear
2:55 AM -8.3 °F -23.0 °F -16.8 °F 67% 30.02 in 10.0 mi West 6.9 mph - N/A   Clear
3:15 AM -9.0 °F -23.8 °F -17.3 °F 67% 30.03 in 10.0 mi West 6.9 mph - N/A   Clear
3:35 AM -9.9 °F -21.5 °F -18.0 °F 68% 30.03 in 10.0 mi West 4.6 mph - N/A   Clear
3:55 AM -11.0 °F -24.6 °F -18.4 °F 70% 30.03 in 10.0 mi West 5.8 mph - N/A   Clear
4:15 AM -11.2 °F -23.0 °F -18.4 °F 70% 30.03 in 10.0 mi West 4.6 mph - N/A   Clear
4:35 AM -11.6 °F -25.3 °F -18.4 °F 72% 30.03 in 10.0 mi West 5.8 mph - N/A   Clear
4:55 AM -11.9 °F -25.7 °F -18.4 °F 73% 30.04 in 10.0 mi West 5.8 mph - N/A   Clear
5:15 AM -11.7 °F -27.1 °F -18.2 °F 73% 30.04 in 10.0 mi West 6.9 mph - N/A   Clear
5:35 AM -13.5 °F -23.3 °F -19.3 °F 75% 30.04 in 10.0 mi WNW 3.5 mph - N/A   Clear
5:55 AM -13.7 °F - -18.9 °F 77% 30.03 in 10.0 mi Calm Calm - N/A   Clear
6:15 AM -15.3 °F - -21.1 °F 75% 30.03 in 10.0 mi Calm Calm - N/A   Clear
6:35 AM -17.1 °F - -21.6 °F 80% 30.04 in 10.0 mi Calm Calm - N/A   Clear
6:55 AM -17.5 °F - -22.5 °F 78% 30.05 in 10.0 mi Calm Calm - N/A   Clear
7:15 AM -18.2 °F - -22.2 °F 82% 30.05 in 10.0 mi Calm Calm - N/A   Clear
7:35 AM -21.3 °F - -26.3 °F 77% 30.06 in 10.0 mi Calm Calm - N/A   Clear
7:55 AM -20.6 °F - -26.1 °F 75% 30.07 in 0.5 mi Calm Calm - N/A Snow Light Snow
8:15 AM -18.6 °F - -24.5 °F 74% 30.08 in 0.8 mi Calm Calm - N/A Snow Light Snow
8:35 AM -18.0 °F - -23.8 °F 75% 30.07 in 0.5 mi Calm Calm - N/A   Haze
8:55 AM -17.0 °F - -22.7 °F 75% 30.07 in 0.2 mi Calm Calm - N/A   Haze
9:15 AM -14.1 °F - -19.3 °F 77% 30.07 in 1.5 mi Calm Calm - N/A   Haze
9:35 AM -13.4 °F - -18.9 °F 76% 30.07 in 10.0 mi Calm Calm - N/A   Clear
9:55 AM -10.3 °F -21.9 °F -15.3 °F 78% 30.08 in 10.0 mi WSW 4.6 mph - N/A   Clear
10:15 AM -8.9 °F -22.1 °F -14.8 °F 75% 30.09 in 10.0 mi SSW 5.8 mph - N/A   Clear
10:35 AM -6.7 °F -19.5 °F -13.7 °F 72% 30.11 in 10.0 mi SSW 5.8 mph - N/A   Clear
10:55 AM -4.9 °F -15.6 °F -13.5 °F 66% 30.12 in 10.0 mi SSW 4.6 mph - N/A   Clear
11:15 AM -3.1 °F -17.9 °F -12.6 °F 64% 30.12 in 10.0 mi South 8.1 mph - N/A   Clear
11:35 AM -2.2 °F -18.0 °F -12.5 °F 62% 30.12 in 10.0 mi SSW 9.2 mph - N/A   Clear
11:55 AM -1.3 °F -14.5 °F -11.9 °F 61% 30.11 in 10.0 mi SSW 6.9 mph - N/A   Clear
12:15 PM 0.3 °F -15.8 °F -10.3 °F 61% 30.10 in 10.0 mi SSW 10.4 mph - N/A   Clear
12:35 PM 1.4 °F -14.5 °F -10.3 °F 58% 30.09 in 10.0 mi SW 10.4 mph - N/A   Clear
12:55 PM 1.9 °F -11.8 °F -10.3 °F 57% 30.09 in 10.0 mi SW 8.1 mph - N/A   Clear
1:15 PM 2.1 °F -10.4 °F -10.3 °F 56% 30.09 in 10.0 mi SW 6.9 mph - N/A   Clear
1:35 PM 3.0 °F -9.3 °F -9.4 °F 56% 30.09 in 10.0 mi WSW 6.9 mph - N/A   Clear
1:55 PM 3.0 °F -9.3 °F -9.2 °F 57% 30.08 in 10.0 mi SW 6.9 mph - N/A   Clear
2:15 PM 3.0 °F -10.5 °F -9.4 °F 56% 30.08 in 10.0 mi SW 8.1 mph - N/A   Clear
2:35 PM 3.2 °F -11.3 °F -9.4 °F 56% 30.07 in 10.0 mi SSW 9.2 mph - N/A   Clear
2:55 PM 3.6 °F -7.3 °F -8.9 °F 56% 30.06 in 10.0 mi SW 5.8 mph - N/A   Clear
3:15 PM 3.6 °F -8.7 °F -8.7 °F 57% 30.06 in 10.0 mi SW 6.9 mph - N/A   Clear
3:35 PM 3.7 °F -8.4 °F -8.5 °F 57% 30.06 in 10.0 mi SSW 6.9 mph - N/A   Clear
3:55 PM 3.6 °F -9.8 °F -8.7 °F 57% 30.06 in 10.0 mi South 8.1 mph - N/A   Clear
4:15 PM 3.0 °F -8.0 °F -8.5 °F 59% 30.05 in 10.0 mi SSW 5.8 mph - N/A   Clear
4:35 PM 2.7 °F -8.4 °F -8.5 °F 60% 30.05 in 10.0 mi South 5.8 mph - N/A   Clear
4:55 PM 2.3 °F -7.2 °F -8.7 °F 60% 30.05 in 10.0 mi South 4.6 mph - N/A   Clear
5:15 PM 1.0 °F -10.3 °F -9.2 °F 62% 30.04 in 10.0 mi South 5.8 mph - N/A   Clear
5:35 PM -0.6 °F -10.6 °F -9.9 °F 65% 30.04 in 10.0 mi South 4.6 mph - N/A   Clear
5:55 PM -2.0 °F -12.2 °F -10.3 °F 68% 30.03 in 10.0 mi South 4.6 mph - N/A   Clear
6:15 PM -1.1 °F -9.1 °F -9.2 °F 69% 30.03 in 10.0 mi South 3.5 mph - N/A   Clear
6:35 PM -1.5 °F -9.5 °F -8.9 °F 71% 30.03 in 10.0 mi SSE 3.5 mph - N/A   Clear
6:55 PM -5.1 °F - -11.9 °F 72% 30.03 in 10.0 mi Calm Calm - N/A   Clear
7:15 PM -7.4 °F - -12.5 °F 79% 30.02 in 10.0 mi Calm Calm - N/A   Clear
7:35 PM -9.0 °F - -13.7 °F 80% 30.03 in 10.0 mi Calm Calm - N/A   Clear
7:55 PM -7.1 °F - -11.9 °F 79% 30.02 in 10.0 mi Calm Calm - N/A   Clear
8:15 PM -11.9 °F - -15.9 °F 83% 30.02 in 10.0 mi Calm Calm - N/A   Clear
8:35 PM -11.9 °F - -17.0 °F 78% 30.01 in 10.0 mi Calm Calm - N/A   Clear
8:55 PM -11.9 °F -23.8 °F -16.1 °F 82% 30.02 in 10.0 mi SE 4.6 mph - N/A   Clear
9:15 PM -11.9 °F - -15.7 °F 83% 30.03 in 10.0 mi Calm Calm - N/A   Clear
9:35 PM -13.9 °F - -19.7 °F 75% 30.03 in 10.0 mi Calm Calm - N/A   Clear
9:55 PM -12.8 °F - -18.0 °F 78% 30.04 in 10.0 mi Calm Calm - N/A   Clear
10:15 PM -12.1 °F - -17.9 °F 76% 30.03 in 10.0 mi Calm Calm - N/A   Clear
10:35 PM -17.3 °F - -22.9 °F 76% 30.02 in 10.0 mi Calm Calm - N/A   Clear
10:55 PM -13.5 °F - -18.6 °F 78% 30.02 in 10.0 mi Calm Calm - N/A   Clear
11:15 PM -17.5 °F - -23.1 °F 76% 30.02 in 10.0 mi Calm Calm - N/A   Clear
11:35 PM -16.2 °F - -21.8 °F 76% 30.02 in 10.0 mi Calm Calm - N/A   Clear
11:55 PM -16.2 °F - -22.2 °F 74% 30.03 in 10.0 mi Calm Calm - N/A   Clear